Regional Weather Roundup
Issued by NWS Jackson, KY

Home | Current Version | Previous Version | Graphics & Text | Print | Product List | Glossary On
Versions: 1 2 3 4 5 6 7 8 9 10 11 12 13 14 15 16 17 18 19 20 21 22 23 24 25 26 27 28
000
ASUS43 KJKL 200410
RWRJKL

EAST KENTUCKY HOURLY WEATHER ROUNDUP
NATIONAL WEATHER SERVICE JACKSON KY
1100 PM EST FRI JAN 19 2018

NOTE: "FAIR" INDICATES FEW OR NO CLOUDS BELOW 12,000 FEET WITH
NO SIGNIFICANT WEATHER AND/OR OBSTRUCTIONS TO VISIBILITY.

* THESE REPORTS ARE NOT UNDER NWS QUALITY CONTROL AND MAY NOT
  REPORT WEATHER SUCH AS PRECIPITATION AND FOG.

KYZ079-080-083-085-087-088-110-112-115-119-120-200500
...EASTERN KENTUCKY...

CITY           SKY/WX    TMP DP  RH WIND       PRES   REMARKS
JACKSON          N/A     35  14  42 SW6       30.13S WCI  30
LONDON           N/A     33  15  47 S7        30.16S WCI  27
SOMERSET*        N/A     32  16  51 S7        30.18S WCI  26
WILLIAMSBURG*    N/A     30  18  59 SE3       30.18S
MIDDLESBORO*     N/A     22  19  88 CALM      30.21S
HARLAN APT*      N/A     28  19  69 CALM      30.18S
PIKE CO APT*     N/A     37  10  32 S6        30.12F WCI  33
BIG SANDY APT*   N/A     39  11  32 SW8       30.13R WCI  33
MOREHEAD APT*    N/A     36  18  48 S12G17    30.12S WCI  27
ASHLAND*         N/A     24  21  88 CALM      30.11S
$$

KYZ035-036-041-042-044-050-067-078-099-200500
...CENTRAL KENTUCKY...

CITY           SKY/WX    TMP DP  RH WIND       PRES   REMARKS
MT STERLING*     N/A     34  18  51 SW9       30.12S WCI  26
FLEMING/MASON*   N/A     32  17  54 SW8       30.10S WCI  25
DANVILLE*        N/A     34  18  51 S8        30.13S WCI  27
LEXINGTON        N/A     35  19  52 S14       30.09F WCI  26
FRANKFORT        N/A     35  18  49 SW9       30.07F WCI  28
LOUISVILLE     MOCLDY    40  24  53 S12       30.08R WCI  33
LEBANON*         N/A     37  19  48 S10       30.11S WCI  30
GLASGOW*       CLOUDY    39  21  49 SW6       30.14R WCI  35
BOWLING GREEN  MOCLDY    38  24  57 S6        30.14R WCI  33
$$

KYZ091>093-OHZ055-061-077-WVZ005-015-034-035-042-200500
...SOUTHERN OHIO/WEST VIRGINIA...

CITY           SKY/WX    TMP DP  RH WIND       PRES   REMARKS
COVINGTON        N/A     36  21  54 S14       30.02F WCI  27
COLUMBUS         N/A     32  20  61 S9        30.01S WCI  24
DAYTON           N/A     33  22  63 SW21G28   29.96F WCI  21
WILMINGTON       N/A     32  21  64 SW17      30.00S WCI  21
HUNTINGTON       N/A     36  11  35 S7        30.10S WCI  30
CHARLESTON       N/A     28  20  71 CALM      30.11S
BECKLEY          N/A     32   6  33 SW8       30.09S WCI  25
BLUEFIELD        N/A     31  -1  25 W8        30.11S WCI  23
LOGAN CO APT*    N/A     36  10  35 CALM      30.11S
$$

VAZ002-007-008-TNZ017-027-036-066-071-200500
...SOUTHWEST VIRGINIA/EAST TENNESSEE...

CITY           SKY/WX    TMP DP  RH WIND       PRES   REMARKS
WISE*            N/A     32  12  43 SW8       30.14S WCI  25
JONESVILLE*      N/A     21  18  86 CALM      30.22S
ABINGDON*        N/A     28  13  54 CALM      30.18R
BRISTOL          N/A     22  15  75 CALM      30.20S
MORRISTOWN*    CLEAR     28  16  59 CALM      30.20R
SEVIERVILLE*   CLEAR     23  19  86 CALM      30.22R
KNOXVILLE        N/A     33  14  45 SW5       30.21R WCI  29
LAFOLLETTE*    CLEAR     23  19  86 CALM      30.24R
OAK RIDGE        N/A     26  20  77 CALM      30.23R
CROSSVILLE     CLOUDY    36  17  46 VRB3      30.18S
NASHVILLE      CLOUDY    44  21  40 S13       30.17S
$$

...KEY TO REMARKS...
VSB - VISIBILITY IN MILES
WCI - WIND CHILL INDEX
HX  - HEAT INDEX

$$




USA.gov is the U.S. government's official web portal to all federal, state and local government web resources and services.